Погода в Безенчуке

Хотите узнать прогноз погоды в Безенчуке? Тогда Вам сюда: Погода в Безенчуке

Поиск расширенной информации на нашем сайте:

Полезная информация:

Новости сайта



02.01.2020
Опубликован Долгосрочный прогноз погоды по городам России и ближнего зарубежья на январь 2020 года.
Карты: Прогноз на январь и февраль 2020 года, Сравнение прогнозируемой аномалии приземной температуры воздуха на январь 2020 года по разным моделям.




Погода в Безенчуке - сегодня

Время (UTC), дата Ветер
(°,м/с) 
Видим.   Явления Облачность Т
(°С)
Тd
(°С)
f(%) Тe
(°С)
Pmin
(гПа)
dP
(гПа)
Po
(мм)
O2
(г/м3)
Тmin Tmax R s Состояние
почвы
15 24.02.21 290 (З) 2{12}  20000 м    3/0 средняя, верхняя 
[As trans|Ci fib]
-20.5 -26.8 57 -23  1035.6  1.2  772  338    -19.1       
18 24.02.21 тихо ()   20000 м    9/0 верхняя 
[Ci fib]
-24.5 -29.6 63 -25  1036.4  0.6  772  344           
21 24.02.21 290 (З) 21000 м    4/0 верхняя 
[Ci fib]
-24.3 -28.4 69 -25  1036.1  -0.3  772  343           
00 25.02.21 280 (З) 20000 м    ясно 
-28.2 -30.9 78 -29  1036.3  -0.1  772  349           
03 25.02.21 тихо ()   20000 м    4/0 средняя, верхняя 
[As trans|Ci fib]
-30.7 -33.8 74 -31  1035.6  -0.8  771  352  -32.1      29  равномерный
сухой снег
100% 
06 25.02.21 тихо ()   20000 м    10/0 средняя, верхняя 
[As trans|Ci fib]
-22.2 -26.2 70 -22  1033.7  -1.7  770  340           
09 25.02.21 190 (Ю) 20000 м    10/0 средняя 
[As trans]
-18.3 -23.9 61 -22  1031.1  -2.4  768  334           
12 25.02.21 160 (Ю) 2000 м  сильн. снег  10/0 средняя 
[As op]
-17.5 -20.4 78 -23  1027.3  -3.1  765  331           
15 25.02.21 160 (Ю) 1000 м  сильн. снег  10/10 300 м 
[Ns]
-16.5 -18.3 86 -22  1023.8  -3.4  763  329    -16.5     
18 25.02.21 170 (Ю) 5-10{10}  1000 м  сильн. снег  10/0 средняя 
[As op]
-14.5 -16.1 88 -20  1020.6  -3.1  761  325           
21 25.02.21 170 (Ю) 4{10}  3900 м  снег  10/0 средняя 
[As op]
-13 -14.5 88 -17  1017.6  -2.9  758  322           
00 26.02.21 130 (ЮВ) 3800 м  снег  10/0 средняя 
[As op]
-12.6 -13.8 91 -15  1016.4  -1.2  758  321           
03 26.02.21 100 (В) 6000 м  слаб. снег  10/10 600 м 
[Ns]
-12.5 -13.8 90 -15  1016.1  -0.3  757  321  -16.5    40  равномерный
сухой снег
100% 
06 26.02.21 130 (ЮВ) 4000 м  слаб. снег  10/10 600 м 
[Ns]
-11.3 -13.5 84 -13  1016.5  0.4  758  320           
09 26.02.21 130 (ЮВ) 20000 м  {снег}  10/10 600 м 
[Sc]
-10.1 -13.1 79 -13  1016.6  0.1  758  318           
12 26.02.21 140 (ЮВ) 20000 м  {снег}  10/10 600 м 
[Sc]
-9.6 -12.3 81 -13  1015.8  -0.7  757  317           
15 26.02.21 130 (ЮВ) 4000 м  слаб. снег  10/10 600 м 
[Ns]
-10.2 -11.3 92 -14  1013.3  -2.4  755  317    -9.4  0.2     
18 26.02.21 150 (ЮВ) 6-11{11}  2000 м  снег  10/10 300 м 
[Ns]
-9.8 -10.7 93 -15  1008.2  -5.1  751  315           
21 26.02.21 130 (ЮВ) 3{13}  2000 м  снег  10/0 средняя 
[As op]
-8.1 -9.3 91 -11  1003  -5.1  748  311           
00 27.02.21 050 (СВ) 21000 м  {снег}  10/0 средняя 
[As op]
-5.8 -6.6 94 -7  1000.5  -2.5  746  308           
03 27.02.21 тихо ()   21000 м    10/10 600 м 
[Sc]
-6.9 -7.9 93 -7  999  -1.5  745  309  -10.2    43  равномерный
сухой снег
100% 
06 27.02.21 240 (ЮЗ) 20000 м    10/10 1000 м 
[Sc]
+2.7 +1.4 91 998.5  -0.2  744  297           
09 27.02.21 230 (ЮЗ) 10 км  слаб. дождь  10/10 1000 м 
[Sc]
+3.3 +1.3 87 +2  998.1  -0.4  744  296           
12 27.02.21 250 (З) 20000 м  {дождь}  10/10 1000 м 
[Sc]
+2.9 +0.7 85 997.8  -0.3  744  296           
15 27.02.21 300 (СЗ) 5-10{10}  6000 м  слаб. дождь  10/10 600 м 
[Sc]
+0.2 -1.1 91 -3  998.8  0.9  745  300    +3.5  0.4     
Время (UTC), дата Ветер
(°,м/с) 
Видим.   Явления Облачность Т
(°С)
Тd
(°С)
f(%) Тe
(°С)
Pmin
(гПа)
dP
(гПа)
Po
(мм)
O2
(г/м3)
Тmin Tmax R s Состояние
почвы

Для получения пояснительной информации подведите курсор к названию столбца.

ПОГОДА в Безенчуке - архив

Всё, что Вы хотите узнать о погоде в Безенчуке - удобно и подробно!

Выберите нужную дату (начиная с 1 января 2019* года) и нажмите кнопку "Найти".
Будут отображены архивные сводки погоды по пункту Безенчук, начиная с указанной даты.


Отображать данные в формате CSV (для использования в таблицах Excel)


Внимание! Наш архив погоды предназначен исключительно для личного некоммерческого использования в познавательных целях. Если Вам необходимы официальные справки о состоянии погоды (для производственных, юридических, коммерческих и т.п. целей), обращайтесь в органы Росгидромета.

*Примечание: данная дата относится к архиву по метеостанциям СССР (Россия, СНГ, Балтия).
Архив по метеостанциям Зарубежной Европы и Азии (кроме Китая) хранится 10 дней, по другим регионам земного шара (Китай, Африка, Америка, Австралия, Океания) - 1 день.

Безенчук - район местоположения метеостанции


Название, широта, долгота, высота метеостанции:
Безенчук 53°ш. 49.4°д. 46 м над ур. моря [Российская Федерация]

Дополнительная информация

В oтличие oт бoльшинства пoгoдных сайтoв мы публикуем пoдрoбную метеoинфoрмацию в детальнoм прoфессиoнальнoм фoрмате.

Характеристики температуры и влажнoсти вoздуха измеряются на высoте 2 м в тени вдали oт зданий и деревьев.
Скoрoсть ветра измеряется на высoте 10 м (на урoвне рoста челoвека скoрoсть ветра ниже в 1.5-2 раза). Если метеoстанция нахoдится в гoрoде или в лесу, тo скoрoсть ветра занижена на 2-4 м/с пo сравнению с oткрытым местoм. Скoрoсть ветра над акватoриями крупных рек и oзёр, а также на вершинах хoлмoв на 2-5 м/с выше, чем в oбычных услoвиях.
Атмoсфернoе давление в разных тoчках местнoсти мoжет значительнo oтличаться oт давления на метеoстанции, в зависимoсти oт услoвий рельефа (при пoдъёме на 10 м давление пoнижается примернo на 1 мм рт.ст.).